Location: Unspecified
(0.0000°N, 0.0000°E)
Time: 21:53:57
(UTC+00:00)

NOAA 16 DEB - Visible Passes

Search period start: 12 January 2025 00:00
Search period end: 22 January 2025 00:00
Orbit: 708 x 760 km, 99.0° (Epoch: 12 January)

Date Brightness Start Highest point End Pass type
(mag) Time Alt. Az. Time Alt. Az. Time Alt. Az.
12 Jan ? 05:40:38 10° SE 05:45:09 33° ENE 05:49:37 10° NNE visible
13 Jan ? 18:59:51 10° NNW 19:03:37 24° WNW 19:07:26 10° SW visible
15 Jan ? 05:05:49 10° E 05:06:18 10° ENE 05:06:46 10° ENE visible
15 Jan ? 19:06:53 10° NNW 19:10:18 20° WNW 19:13:47 10° WSW visible
17 Jan ? 05:10:52 10° ESE 05:12:55 12° ENE 05:14:57 10° NE visible
17 Jan ? 19:13:53 10° NW 19:16:54 17° WNW 19:19:55 10° WSW visible
19 Jan ? 05:16:40 10° ESE 05:19:26 15° ENE 05:22:11 10° NE visible
19 Jan ? 19:20:56 10° NW 19:23:22 14° WNW 19:25:49 10° WSW visible
20 Jan ? 18:32:53 10° N 18:37:33 55° WNW 18:42:18 10° SSW visible
21 Jan ? 05:22:34 10° ESE 05:25:51 18° ENE 05:29:06 10° NE visible
21 Jan ? 19:28:07 10° WNW 19:29:44 12° WNW 19:31:22 10° W visible
